Weather History for Zacatecas Airport, Mexico

Change the Weather History Date:

Sunday, November 6, 2011

  Actual Average Record
Temperature  
Mean Temperature 58 °F -  
Max Temperature 73 °F 72 °F 80 °F (2003)
Min Temperature 42 °F 37 °F 24 °F (2004)
Degree Days  
Heating Degree Days 8    
Growing Degree Days 8 (Base 50)    
Moisture  
Dew Point 33 °F    
Average Humidity 39    
Maximum Humidity 94    
Minimum Humidity 22    
Precipitation  
Precipitation 0.00 in - - ()
Sea Level Pressure  
Sea Level Pressure 30.26 in    
Wind  
Wind Speed 8 mph ()    
Max Wind Speed 25 mph    
Max Gust Speed 24 mph    
Visibility 10.0 miles    
Events      
Averages and records for this station are not official NWS values.
T = Trace of Precipitation, MM = Missing Value Source: Averaged Metar Reports

Daily Weather History Graph

Daily Weather History Graph

Search for Another Location

Airport:

Trip Planner

Search our weather history database for the weather conditions in past years. The results will help you decide how hot, cold, wet, or windy it might be!

Date:

Astronomy

Nov. 06, 2011 Rise Set
Actual Time 6:58 AM CST 6:10 PM CST
Civil Twilight 6:34 AM CST 6:33 PM CST
Nautical Twilight 6:08 AM CST 7:00 PM CST
Astronomical Twilight 5:41 AM CST 7:26 PM CST
Moon 3:36 PM CST (11/6) 3:28 AM CST (11/6)
Length of Visible Light 11h 58m
Length of Day
11h 11m
Waxing Gibbous, 86% of the Moon is Illuminated
Nov 6
Waxing Gibbous
Nov 10
Full
Nov 18
Last Quarter
Nov 25
New
Dec 2
First Quarter

Hourly Weather History & Observations

Time (CST) Temp. Windchill Dew Point Humidity Pressure Visibility Wind Dir Wind Speed Gust Speed Precip Events Conditions
1:08 AM 50.0 °F - 48.2 °F 94% 30.25 in 10.0 mi SSW 4.6 mph - N/A   Scattered Clouds
5:43 AM 48.2 °F - 33.8 °F 58% 30.25 in 10.0 mi South 8.1 mph - N/A   Mostly Cloudy
6:40 AM 42.8 °F 38.6 °F 32.0 °F 66% 30.26 in 10.0 mi SSW 6.9 mph - N/A   Mostly Cloudy
7:47 AM 44.6 °F 40.2 °F 33.8 °F 66% 30.29 in 10.0 mi SSE 8.1 mph - N/A   Scattered Clouds
9:01 AM 60.8 °F - 35.6 °F 39% 30.30 in 10.0 mi Calm Calm - N/A   Clear
9:40 AM 64.4 °F - 32.0 °F 30% 30.31 in 10.0 mi WSW 8.1 mph - N/A   Clear
10:44 AM 69.8 °F - 32.0 °F 25% 30.31 in 10.0 mi WSW 10.4 mph - N/A   Clear
12:02 PM 71.6 °F - 32.0 °F 23% 30.28 in 10.0 mi WNW 12.7 mph 24.2 mph N/A   Partly Cloudy
12:47 PM 73.4 °F - 32.0 °F 22% 30.28 in 10.0 mi West 20.7 mph - N/A   Scattered Clouds
1:47 PM 73.4 °F - 32.0 °F 22% 30.23 in 10.0 mi SW 25.3 mph - N/A   Scattered Clouds
2:41 PM 73.4 °F - 32.0 °F 22% 30.22 in 10.0 mi WSW 20.7 mph - N/A   Scattered Clouds
3:44 PM 71.6 °F - 32.0 °F 23% 30.21 in 10.0 mi WSW 17.3 mph - N/A   Mostly Cloudy
4:44 PM 71.6 °F - 32.0 °F 23% 30.21 in 10.0 mi West 20.7 mph - N/A   Mostly Cloudy
5:42 PM 68.0 °F - 32.0 °F 26% 30.22 in 10.0 mi WSW 16.1 mph - N/A   Mostly Cloudy
6:41 PM 64.4 °F - 32.0 °F 30% 30.24 in 10.0 mi West 9.2 mph - N/A   Mostly Cloudy
7:42 PM 60.8 °F - 32.0 °F 34% 30.26 in 10.0 mi WNW 5.8 mph - N/A   Scattered Clouds
8:42 PM 59.0 °F - 32.0 °F 36% 30.28 in 10.0 mi South 4.6 mph - N/A   Scattered Clouds
9:50 PM 57.2 °F - 32.0 °F 38% 30.29 in 10.0 mi South 4.6 mph - N/A   Mostly Cloudy
10:52 PM 53.6 °F - 32.0 °F 44% 30.29 in 10.0 mi South 4.6 mph - N/A   Mostly Cloudy
11:42 PM 48.2 °F - 30.2 °F 50% 30.29 in 10.0 mi SSW 4.6 mph - N/A   Mostly Cloudy